Location: Banksville Park
(38.5557°N, 75.1182°W)
Time: 04:48:57
(UTC+00:00)

Cosmos 1707 Rocket - Pass Details

Date: 19 September 2020
Orbit: 606 x 630 km, 82.5° (Epoch: 20 October)

Event Time Altitude Azimuth Distance (km) Brightness Sun altitude
Exits shadow 09:49:37 - 203° (SSW) 2,844 6.6 -11.8°
Reaches altitude 10° 09:51:54 10° 210° (SSW) 1,948 5.7 -11.3°
Maximum altitude 09:55:59 41° 281° (W) 881 3.9 -10.5°
Drops below altitude 10° 10:00:06 10° 352° (N) 1,966 6.2 -9.7°
Sets 10:02:26 0° 0° (N) 2,877 7.1 -9.3°
